OISY 
Yasouj Airport
Iran 
ICAOStatus
OISYOperational
LatitudeLongitude
30° 42' 1" N51° 32' 42" E
30.70050051.545101
Local Time (DST+5)UTC (GMT+4)
04-24-2014 07:45 am04-24-2014 03:15
Sunrise-SunsetLocalUTC
Begin Civil Twilight05:59 am01:29
Sunrise06:25 am01:55
Sunset07:38 pm15:08
End Civil Twilight08:03 pm15:33

Current Weather

METARObservedFlight Conditions

OISY 240300Z 00000KT CAVOK 09/06 Q1021

Thu, Apr 24, 2014 @ 03:00 UTC(Z)

(15 Minutes ago)

VFR

(Visual Flight Rules)

WindVisibilityCloudsConditions
Calm
10 km or more
  • Clear skies
  • No significant weather
TemperaturesReadingsPrecipitation
Current Temp9°C (48°F)
Dewpoint6°C (43°F)
Humidity82%
Altimeter30.15"Hg
Sea Level Pressure1021mb
Field Elevation5941.6'
None Recorded

Additional weather within a 185.2km radius of OISY

Location METAR
OISS

163.5km S (142°)

15 minutes ago
OIAG

178.5km W (272°)

1 hour, 15 minutes ago
VFR VFR    MVFR MVFR    IFR IFR    LIFR LIFR    Unknown Unknown

Previous 24 hour Weather Graphs

  Loading...

CheckWX.com is intended as a tool to help pilots better visualize weather data.   It is not intended as a substitute for an official weather briefing obtained from a Flight Service Station.
CheckWX.com does not meet the FAA requirements for an official pre-flight weather briefing.   Therefore, it's important that pilots still call and obtain an official FSS pre-flight weather briefing.